User: anonymous
Location: Unspecified
(0.0000°N, 0.0000°E)
Time: 14:31:21
(UTC+00:00)
Language:

Aussat K2 - Orbit

View from above orbital plane
View from above orbital plane
View from above satellite
View from above satellite

Ground track
Ground track

The orbit data is extracted from the following two-line orbital elements,

1 16275U 85109C   14107.35143064 -.00000279  00000-0  00000+0 0  4503
2 16275 014.5651 021.2089 0002291 148.2025 100.0350 00.99942785 93669
Epoch (UTC): 17 April 2014 08:26:03
Eccentricity: 0.0002291
inclination: 14.5651°
perigee height: 35869 km
apogee height: 35888 km
right ascension of ascending node: 21.2089°
argument of perigee: 148.2025°
revolutions per day: 0.99942785
mean anomaly at epoch: 100.0350°
orbit number at epoch: 9366

The dashed part of the orbit path shows where the satellite is in the earth's shadow,  

DLR